owner,sensor,date,latitude,longitude,vertical_datum,wind_speed,wind_to_direction,wind_speed_of_gust,qcFlag 
TCOON,ioos:station:TCOON:057:1,2008-10-01T00:00:00Z,28.4460,-96.3961,0.0,3.1,216.0,3.7,'11111222,11111222,11111222' 
TCOON,ioos:station:TCOON:057:1,2008-10-01T01:00:00Z,28.4460,-96.3961,0.0,4.3,222.0,5.1,'11111222,11111222,11111222' 
TCOON,ioos:station:TCOON:057:1,2008-10-01T03:00:00Z,28.4460,-96.3961,0.0,3.3,227.0,4.2,'11111222,11111222,11111222' 
TCOON,ioos:station:TCOON:057:1,2008-10-01T04:00:00Z,28.4460,-96.3961,0.0,2.0,270.0,2.2,'11111222,11111222,11111222' 
TCOON,ioos:station:TCOON:057:1,2008-10-01T05:00:00Z,28.4460,-96.3961,0.0,2.8,316.0,3.3,'11111222,11111222,11111222' 
TCOON,ioos:station:TCOON:057:1,2008-10-01T06:00:00Z,28.4460,-96.3961,0.0,3.3,309.0,3.7,'11111222,11111222,11111222' 
TCOON,ioos:station:TCOON:057:1,2008-10-01T07:00:00Z,28.4460,-96.3961,0.0,5.0,338.0,5.5,'11111222,11111222,11111222' 
TCOON,ioos:station:TCOON:057:1,2008-10-01T08:00:00Z,28.4460,-96.3961,0.0,4.0,1.0,4.5,'11111222,11111222,11111222' 
TCOON,ioos:station:TCOON:057:1,2008-10-01T09:00:00Z,28.4460,-96.3961,0.0,3.6,359.0,4.1,'11111222,11111222,11111222' 
TCOON,ioos:station:TCOON:057:1,2008-10-01T10:00:00Z,28.4460,-96.3961,0.0,4.8,27.0,5.2,'11111222,11111222,11111222' 
TCOON,ioos:station:TCOON:057:1,2008-10-01T11:00:00Z,28.4460,-96.3961,0.0,5.9,27.0,6.6,'11111222,11111222,11111222' 
TCOON,ioos:station:TCOON:057:1,2008-10-01T12:00:00Z,28.4460,-96.3961,0.0,5.8,31.0,7.3,'11111222,11111222,11111222' 
TCOON,ioos:station:TCOON:057:1,2008-10-01T13:00:00Z,28.4460,-96.3961,0.0,5.7,22.0,6.4,'11111222,11111222,11111222' 
TCOON,ioos:station:TCOON:057:1,2008-10-01T14:00:00Z,28.4460,-96.3961,0.0,4.9,28.0,5.8,'11111222,11111222,11111222' 
TCOON,ioos:station:TCOON:057:1,2008-10-01T15:00:00Z,28.4460,-96.3961,0.0,6.0,31.0,6.7,'11111222,11111222,11111222' 
TCOON,ioos:station:TCOON:057:1,2008-10-01T16:00:00Z,28.4460,-96.3961,0.0,4.2,30.0,4.8,'11111222,11111222,11111222' 
TCOON,ioos:station:TCOON:057:1,2008-10-01T17:00:00Z,28.4460,-96.3961,0.0,3.0,26.0,3.4,'11111222,11111222,11111222' 
TCOON,ioos:station:TCOON:057:1,2008-10-01T18:00:00Z,28.4460,-96.3961,0.0,1.5,27.0,2.2,'11111222,11111222,11111222' 
TCOON,ioos:station:TCOON:057:1,2008-10-01T19:00:00Z,28.4460,-96.3961,0.0,0.0,1.0,99.0,'11111222,11111222,11144222' 
TCOON,ioos:station:TCOON:057:1,2008-10-01T20:00:00Z,28.4460,-96.3961,0.0,0.0,339.0,99.0,'11111222,11111222,11144222' 
TCOON,ioos:station:TCOON:057:1,2008-10-01T21:00:00Z,28.4460,-96.3961,0.0,1.0,68.0,1.4,'11111222,11111222,11111222' 
TCOON,ioos:station:TCOON:057:1,2008-10-01T22:00:00Z,28.4460,-96.3961,0.0,0.9,39.0,1.3,'11111222,11111222,11111222' 
TCOON,ioos:station:TCOON:057:1,2008-10-01T23:00:00Z,28.4460,-96.3961,0.0,1.0,83.0,1.3,'11111222,11111222,11111222' 
TCOON,ioos:station:TCOON:057:1,2008-10-02T00:00:00Z,28.4460,-96.3961,0.0,1.5,69.0,1.8,'11111222,11111222,11111222' 
TCOON,ioos:station:TCOON:057:1,2008-10-02T01:00:00Z,28.4460,-96.3961,0.0,6.6,51.0,7.7,'11111222,11111222,11111222' 
TCOON,ioos:station:TCOON:057:1,2008-10-02T02:00:00Z,28.4460,-96.3961,0.0,5.0,73.0,5.7,'11111222,11111222,11111222' 
TCOON,ioos:station:TCOON:057:1,2008-10-02T03:00:00Z,28.4460,-96.3961,0.0,4.0,100.0,4.6,'11111222,11111222,11111222' 
TCOON,ioos:station:TCOON:057:1,2008-10-02T04:00:00Z,28.4460,-96.3961,0.0,3.6,105.0,4.3,'11111222,11111222,11111222' 
TCOON,ioos:station:TCOON:057:1,2008-10-02T05:00:00Z,28.4460,-96.3961,0.0,4.5,76.0,5.0,'11111222,11111222,11111222' 
TCOON,ioos:station:TCOON:057:1,2008-10-02T06:00:00Z,28.4460,-96.3961,0.0,3.8,79.0,4.4,'11111222,11111222,11111222' 
TCOON,ioos:station:TCOON:057:1,2008-10-02T07:00:00Z,28.4460,-96.3961,0.0,3.0,97.0,3.4,'11111222,11111222,11111222' 
TCOON,ioos:station:TCOON:057:1,2008-10-02T08:00:00Z,28.4460,-96.3961,0.0,3.3,84.0,3.6,'11111222,11111222,11111222' 
TCOON,ioos:station:TCOON:057:1,2008-10-02T09:00:00Z,28.4460,-96.3961,0.0,3.4,82.0,4.0,'11111222,11111222,11111222' 
TCOON,ioos:station:TCOON:057:1,2008-10-02T10:00:00Z,28.4460,-96.3961,0.0,4.2,74.0,4.6,'11111222,11111222,11111222' 
TCOON,ioos:station:TCOON:057:1,2008-10-02T11:00:00Z,28.4460,-96.3961,0.0,2.9,108.0,3.4,'11111222,11111222,11111222' 
TCOON,ioos:station:TCOON:057:1,2008-10-02T12:00:00Z,28.4460,-96.3961,0.0,2.3,109.0,3.0,'11111222,11111222,11111222' 
TCOON,ioos:station:TCOON:057:1,2008-10-02T13:00:00Z,28.4460,-96.3961,0.0,3.4,37.0,4.1,'11111222,11111222,11111222' 
TCOON,ioos:station:TCOON:057:1,2008-10-02T14:00:00Z,28.4460,-96.3961,0.0,4.0,41.0,4.7,'11111222,11111222,11111222' 
TCOON,ioos:station:TCOON:057:1,2008-10-02T15:00:00Z,28.4460,-96.3961,0.0,3.8,50.0,4.2,'11111222,11111222,11111222' 
TCOON,ioos:station:TCOON:057:1,2008-10-02T16:00:00Z,28.4460,-96.3961,0.0,3.3,64.0,3.8,'11111222,11111222,11111222' 
TCOON,ioos:station:TCOON:057:1,2008-10-02T17:00:00Z,28.4460,-96.3961,0.0,3.8,118.0,4.2,'11111222,11111222,11111222' 
TCOON,ioos:station:TCOON:057:1,2008-10-02T18:00:00Z,28.4460,-96.3961,0.0,3.6,124.0,4.2,'11111222,11111222,11111222' 
TCOON,ioos:station:TCOON:057:1,2008-10-02T19:00:00Z,28.4460,-96.3961,0.0,2.7,150.0,3.0,'11111222,11111222,11111222' 
TCOON,ioos:station:TCOON:057:1,2008-10-02T20:00:00Z,28.4460,-96.3961,0.0,3.1,146.0,3.9,'11111222,11111222,11111222' 
TCOON,ioos:station:TCOON:057:1,2008-10-02T21:00:00Z,28.4460,-96.3961,0.0,3.7,154.0,4.3,'11111222,11111222,11111222' 
TCOON,ioos:station:TCOON:057:1,2008-10-02T22:00:00Z,28.4460,-96.3961,0.0,4.2,159.0,4.7,'11111222,11111222,11111222' 
TCOON,ioos:station:TCOON:057:1,2008-10-02T23:00:00Z,28.4460,-96.3961,0.0,4.5,158.0,5.2,'11111222,11111222,11111222' 
TCOON,ioos:station:TCOON:057:1,2008-10-03T00:00:00Z,28.4460,-96.3961,0.0,4.9,163.0,5.4,'11111222,11111222,11111222' 
TCOON,ioos:station:TCOON:057:1,2008-10-03T01:00:00Z,28.4460,-96.3961,0.0,4.5,161.0,5.5,'11111222,11111222,11111222' 
TCOON,ioos:station:TCOON:057:1,2008-10-03T02:00:00Z,28.4460,-96.3961,0.0,4.5,151.0,5.4,'11111222,11111222,11111222' 
TCOON,ioos:station:TCOON:057:1,2008-10-03T03:00:00Z,28.4460,-96.3961,0.0,4.3,164.0,5.0,'11111222,11111222,11111222' 
TCOON,ioos:station:TCOON:057:1,2008-10-03T04:00:00Z,28.4460,-96.3961,0.0,4.8,154.0,5.4,'11111222,11111222,11111222' 
TCOON,ioos:station:TCOON:057:1,2008-10-03T05:00:00Z,28.4460,-96.3961,0.0,5.9,147.0,6.6,'11111222,11111222,11111222' 
TCOON,ioos:station:TCOON:057:1,2008-10-03T06:00:00Z,28.4460,-96.3961,0.0,6.0,145.0,6.8,'11111222,11111222,11111222' 
TCOON,ioos:station:TCOON:057:1,2008-10-03T07:00:00Z,28.4460,-96.3961,0.0,6.0,147.0,7.1,'11111222,11111222,11111222' 
TCOON,ioos:station:TCOON:057:1,2008-10-03T08:00:00Z,28.4460,-96.3961,0.0,6.8,154.0,7.6,'11111222,11111222,11111222' 
TCOON,ioos:station:TCOON:057:1,2008-10-03T09:00:00Z,28.4460,-96.3961,0.0,7.1,160.0,8.1,'11111222,11111222,11111222' 
TCOON,ioos:station:TCOON:057:1,2008-10-03T10:00:00Z,28.4460,-96.3961,0.0,6.8,162.0,7.7,'11111222,11111222,11111222' 
TCOON,ioos:station:TCOON:057:1,2008-10-03T11:00:00Z,28.4460,-96.3961,0.0,7.2,166.0,8.2,'11111222,11111222,11111222' 
TCOON,ioos:station:TCOON:057:1,2008-10-03T12:00:00Z,28.4460,-96.3961,0.0,6.9,160.0,8.0,'11111222,11111222,11111222' 
TCOON,ioos:station:TCOON:057:1,2008-10-03T13:00:00Z,28.4460,-96.3961,0.0,5.7,165.0,6.7,'11111222,11111222,11111222' 
TCOON,ioos:station:TCOON:057:1,2008-10-03T14:00:00Z,28.4460,-96.3961,0.0,6.3,174.0,7.4,'11111222,11111222,11111222' 
TCOON,ioos:station:TCOON:057:1,2008-10-03T15:00:00Z,28.4460,-96.3961,0.0,5.9,171.0,7.3,'11111222,11111222,11111222' 
TCOON,ioos:station:TCOON:057:1,2008-10-03T16:00:00Z,28.4460,-96.3961,0.0,6.2,161.0,7.6,'11111222,11111222,11111222' 
TCOON,ioos:station:TCOON:057:1,2008-10-03T17:00:00Z,28.4460,-96.3961,0.0,6.2,164.0,7.4,'11111222,11111222,11111222' 
TCOON,ioos:station:TCOON:057:1,2008-10-03T18:00:00Z,28.4460,-96.3961,0.0,6.1,168.0,8.3,'11111222,11111222,11111222' 
TCOON,ioos:station:TCOON:057:1,2008-10-03T19:00:00Z,28.4460,-96.3961,0.0,6.6,175.0,7.5,'11111222,11111222,11111222' 
TCOON,ioos:station:TCOON:057:1,2008-10-03T20:00:00Z,28.4460,-96.3961,0.0,6.3,159.0,7.2,'11111222,11111222,11111222' 
TCOON,ioos:station:TCOON:057:1,2008-10-03T21:00:00Z,28.4460,-96.3961,0.0,6.0,167.0,7.0,'11111222,11111222,11111222' 
TCOON,ioos:station:TCOON:057:1,2008-10-03T22:00:00Z,28.4460,-96.3961,0.0,5.1,176.0,6.5,'11111222,11111222,11111222' 
TCOON,ioos:station:TCOON:057:1,2008-10-03T23:00:00Z,28.4460,-96.3961,0.0,5.6,166.0,6.7,'11111222,11111222,11111222' 
TCOON,ioos:station:TCOON:057:1,2008-10-04T00:00:00Z,28.4460,-96.3961,0.0,4.3,169.0,4.9,'11111222,11111222,11111222' 
TCOON,ioos:station:TCOON:057:1,2008-10-04T01:00:00Z,28.4460,-96.3961,0.0,5.1,142.0,5.9,'11111222,11111222,11111222' 
TCOON,ioos:station:TCOON:057:1,2008-10-04T02:00:00Z,28.4460,-96.3961,0.0,5.6,154.0,6.5,'11111222,11111222,11111222' 
TCOON,ioos:station:TCOON:057:1,2008-10-04T03:00:00Z,28.4460,-96.3961,0.0,6.3,150.0,7.2,'11111222,11111222,11111222' 
TCOON,ioos:station:TCOON:057:1,2008-10-04T04:00:00Z,28.4460,-96.3961,0.0,6.5,158.0,7.8,'11111222,11111222,11111222' 
TCOON,ioos:station:TCOON:057:1,2008-10-04T05:00:00Z,28.4460,-96.3961,0.0,6.9,154.0,7.9,'11111222,11111222,11111222' 
TCOON,ioos:station:TCOON:057:1,2008-10-04T06:00:00Z,28.4460,-96.3961,0.0,6.2,152.0,7.3,'11111222,11111222,11111222' 
TCOON,ioos:station:TCOON:057:1,2008-10-04T07:00:00Z,28.4460,-96.3961,0.0,6.6,154.0,7.5,'11111222,11111222,11111222' 
TCOON,ioos:station:TCOON:057:1,2008-10-04T08:00:00Z,28.4460,-96.3961,0.0,7.1,152.0,8.0,'11111222,11111222,11111222' 
TCOON,ioos:station:TCOON:057:1,2008-10-04T09:00:00Z,28.4460,-96.3961,0.0,6.8,163.0,7.9,'11111222,11111222,11111222' 
TCOON,ioos:station:TCOON:057:1,2008-10-04T10:00:00Z,28.4460,-96.3961,0.0,6.4,155.0,7.6,'11111222,11111222,11111222' 
TCOON,ioos:station:TCOON:057:1,2008-10-04T11:00:00Z,28.4460,-96.3961,0.0,5.4,150.0,6.2,'11111222,11111222,11111222' 
TCOON,ioos:station:TCOON:057:1,2008-10-04T12:00:00Z,28.4460,-96.3961,0.0,6.7,144.0,7.5,'11111222,11111222,11111222' 
TCOON,ioos:station:TCOON:057:1,2008-10-04T13:00:00Z,28.4460,-96.3961,0.0,6.2,137.0,7.3,'11111222,11111222,11111222' 
TCOON,ioos:station:TCOON:057:1,2008-10-04T14:00:00Z,28.4460,-96.3961,0.0,6.3,132.0,7.4,'11111222,11111222,11111222' 
TCOON,ioos:station:TCOON:057:1,2008-10-04T15:00:00Z,28.4460,-96.3961,0.0,5.3,130.0,6.3,'11111222,11111222,11111222' 
TCOON,ioos:station:TCOON:057:1,2008-10-04T16:00:00Z,28.4460,-96.3961,0.0,6.1,121.0,7.4,'11111222,11111222,11111222' 
TCOON,ioos:station:TCOON:057:1,2008-10-04T17:00:00Z,28.4460,-96.3961,0.0,6.8,117.0,8.0,'11111222,11111222,11111222' 
TCOON,ioos:station:TCOON:057:1,2008-10-04T18:00:00Z,28.4460,-96.3961,0.0,7.5,113.0,9.0,'11111222,11111222,11111222' 
TCOON,ioos:station:TCOON:057:1,2008-10-04T19:00:00Z,28.4460,-96.3961,0.0,7.3,123.0,8.6,'11111222,11111222,11111222' 
TCOON,ioos:station:TCOON:057:1,2008-10-04T20:00:00Z,28.4460,-96.3961,0.0,7.0,113.0,8.0,'11111222,11111222,11111222' 
TCOON,ioos:station:TCOON:057:1,2008-10-04T21:00:00Z,28.4460,-96.3961,0.0,7.1,109.0,8.6,'11111222,11111222,11111222' 
TCOON,ioos:station:TCOON:057:1,2008-10-04T22:00:00Z,28.4460,-96.3961,0.0,8.0,106.0,9.1,'11111222,11111222,11111222' 
TCOON,ioos:station:TCOON:057:1,2008-10-04T23:00:00Z,28.4460,-96.3961,0.0,8.1,110.0,9.3,'11111222,11111222,11111222' 
TCOON,ioos:station:TCOON:057:1,2008-10-05T00:00:00Z,28.4460,-96.3961,0.0,9.0,105.0,10.2,'11111222,11111222,11111222' 
TCOON,ioos:station:TCOON:057:1,2008-10-05T01:00:00Z,28.4460,-96.3961,0.0,9.3,105.0,10.6,'11111222,11111222,11111222' 
TCOON,ioos:station:TCOON:057:1,2008-10-05T02:00:00Z,28.4460,-96.3961,0.0,8.3,102.0,9.8,'11111222,11111222,11111222' 
TCOON,ioos:station:TCOON:057:1,2008-10-05T03:00:00Z,28.4460,-96.3961,0.0,7.7,108.0,9.5,'11111222,11111222,11111222' 
TCOON,ioos:station:TCOON:057:1,2008-10-05T04:00:00Z,28.4460,-96.3961,0.0,8.1,122.0,9.5,'11111222,11111222,11111222' 
TCOON,ioos:station:TCOON:057:1,2008-10-05T05:00:00Z,28.4460,-96.3961,0.0,8.1,135.0,9.1,'11111222,11111222,11111222' 
TCOON,ioos:station:TCOON:057:1,2008-10-05T06:00:00Z,28.4460,-96.3961,0.0,8.1,132.0,9.2,'11111222,11111222,11111222' 
TCOON,ioos:station:TCOON:057:1,2008-10-05T07:00:00Z,28.4460,-96.3961,0.0,8.3,136.0,9.1,'11111222,11111222,11111222' 
TCOON,ioos:station:TCOON:057:1,2008-10-05T08:00:00Z,28.4460,-96.3961,0.0,7.8,130.0,8.7,'11111222,11111222,11111222' 
TCOON,ioos:station:TCOON:057:1,2008-10-05T09:00:00Z,28.4460,-96.3961,0.0,8.7,133.0,9.8,'11111222,11111222,11111222' 
TCOON,ioos:station:TCOON:057:1,2008-10-05T10:00:00Z,28.4460,-96.3961,0.0,7.1,133.0,8.6,'11111222,11111222,11111222' 
TCOON,ioos:station:TCOON:057:1,2008-10-05T11:00:00Z,28.4460,-96.3961,0.0,7.1,135.0,8.2,'11111222,11111222,11111222' 
TCOON,ioos:station:TCOON:057:1,2008-10-05T12:00:00Z,28.4460,-96.3961,0.0,7.0,140.0,8.5,'11111222,11111222,11111222' 
TCOON,ioos:station:TCOON:057:1,2008-10-05T13:00:00Z,28.4460,-96.3961,0.0,6.1,134.0,7.7,'11111222,11111222,11111222' 
TCOON,ioos:station:TCOON:057:1,2008-10-05T14:00:00Z,28.4460,-96.3961,0.0,7.5,133.0,8.3,'11111222,11111222,11111222' 
TCOON,ioos:station:TCOON:057:1,2008-10-05T15:00:00Z,28.4460,-96.3961,0.0,6.8,122.0,8.0,'11111222,11111222,11111222' 
TCOON,ioos:station:TCOON:057:1,2008-10-05T16:00:00Z,28.4460,-96.3961,0.0,6.4,126.0,7.3,'11111222,11111222,11111222' 
TCOON,ioos:station:TCOON:057:1,2008-10-05T17:00:00Z,28.4460,-96.3961,0.0,7.7,135.0,9.0,'11111222,11111222,11111222' 
TCOON,ioos:station:TCOON:057:1,2008-10-05T18:00:00Z,28.4460,-96.3961,0.0,9.0,130.0,9.9,'11111222,11111222,11111222' 
TCOON,ioos:station:TCOON:057:1,2008-10-05T19:00:00Z,28.4460,-96.3961,0.0,8.1,129.0,9.1,'11111222,11111222,11111222' 
TCOON,ioos:station:TCOON:057:1,2008-10-05T20:00:00Z,28.4460,-96.3961,0.0,7.6,127.0,8.8,'11111222,11111222,11111222' 
TCOON,ioos:station:TCOON:057:1,2008-10-05T21:00:00Z,28.4460,-96.3961,0.0,8.2,139.0,9.2,'11111222,11111222,11111222' 
TCOON,ioos:station:TCOON:057:1,2008-10-05T22:00:00Z,28.4460,-96.3961,0.0,8.0,136.0,9.2,'11111222,11111222,11111222' 
TCOON,ioos:station:TCOON:057:1,2008-10-05T23:00:00Z,28.4460,-96.3961,0.0,7.6,132.0,8.8,'11111222,11111222,11111222' 
TCOON,ioos:station:TCOON:057:1,2008-10-06T00:00:00Z,28.4460,-96.3961,0.0,6.9,130.0,7.6,'11111222,11111222,11111222' 
TCOON,ioos:station:TCOON:057:1,2008-10-06T01:00:00Z,28.4460,-96.3961,0.0,7.8,120.0,9.1,'11111222,11111222,11111222' 
TCOON,ioos:station:TCOON:057:1,2008-10-06T02:00:00Z,28.4460,-96.3961,0.0,9.2,127.0,11.1,'11111222,11111222,11111222' 
TCOON,ioos:station:TCOON:057:1,2008-10-06T03:00:00Z,28.4460,-96.3961,0.0,8.2,121.0,9.1,'11111222,11111222,11111222' 
TCOON,ioos:station:TCOON:057:1,2008-10-06T04:00:00Z,28.4460,-96.3961,0.0,7.9,127.0,9.0,'11111222,11111222,11111222' 
TCOON,ioos:station:TCOON:057:1,2008-10-06T05:00:00Z,28.4460,-96.3961,0.0,7.4,131.0,9.0,'11111222,11111222,11111222' 
TCOON,ioos:station:TCOON:057:1,2008-10-06T06:00:00Z,28.4460,-96.3961,0.0,7.6,132.0,9.1,'11111222,11111222,11111222' 
TCOON,ioos:station:TCOON:057:1,2008-10-06T07:00:00Z,28.4460,-96.3961,0.0,8.7,137.0,9.8,'11111222,11111222,11111222' 
TCOON,ioos:station:TCOON:057:1,2008-10-06T08:00:00Z,28.4460,-96.3961,0.0,7.1,144.0,8.0,'11111222,11111222,11111222' 
TCOON,ioos:station:TCOON:057:1,2008-10-06T09:00:00Z,28.4460,-96.3961,0.0,6.6,149.0,7.3,'11111222,11111222,11111222' 
TCOON,ioos:station:TCOON:057:1,2008-10-06T10:00:00Z,28.4460,-96.3961,0.0,6.5,155.0,7.4,'11111222,11111222,11111222' 
TCOON,ioos:station:TCOON:057:1,2008-10-06T11:00:00Z,28.4460,-96.3961,0.0,7.9,153.0,8.9,'11111222,11111222,11111222' 
TCOON,ioos:station:TCOON:057:1,2008-10-06T12:00:00Z,28.4460,-96.3961,0.0,7.3,148.0,8.4,'11111222,11111222,11111222' 
TCOON,ioos:station:TCOON:057:1,2008-10-06T13:00:00Z,28.4460,-96.3961,0.0,6.7,155.0,7.7,'11111222,11111222,11111222' 
TCOON,ioos:station:TCOON:057:1,2008-10-06T14:00:00Z,28.4460,-96.3961,0.0,5.4,154.0,6.3,'11111222,11111222,11111222' 
TCOON,ioos:station:TCOON:057:1,2008-10-06T15:00:00Z,28.4460,-96.3961,0.0,5.9,168.0,6.8,'11111222,11111222,11111222' 
TCOON,ioos:station:TCOON:057:1,2008-10-06T16:00:00Z,28.4460,-96.3961,0.0,4.6,155.0,5.1,'11111222,11111222,11111222' 
TCOON,ioos:station:TCOON:057:1,2008-10-06T17:00:00Z,28.4460,-96.3961,0.0,4.6,151.0,5.8,'11111222,11111222,11111222' 
TCOON,ioos:station:TCOON:057:1,2008-10-06T18:00:00Z,28.4460,-96.3961,0.0,4.4,165.0,5.2,'11111222,11111222,11111222' 
TCOON,ioos:station:TCOON:057:1,2008-10-06T19:00:00Z,28.4460,-96.3961,0.0,4.4,151.0,5.1,'11111222,11111222,11111222' 
TCOON,ioos:station:TCOON:057:1,2008-10-06T20:00:00Z,28.4460,-96.3961,0.0,5.1,151.0,6.0,'11111222,11111222,11111222' 
TCOON,ioos:station:TCOON:057:1,2008-10-06T21:00:00Z,28.4460,-96.3961,0.0,5.0,152.0,5.6,'11111222,11111222,11111222' 
TCOON,ioos:station:TCOON:057:1,2008-10-06T22:00:00Z,28.4460,-96.3961,0.0,4.8,145.0,5.7,'11111222,11111222,11111222' 
TCOON,ioos:station:TCOON:057:1,2008-10-06T23:00:00Z,28.4460,-96.3961,0.0,5.9,139.0,7.1,'11111222,11111222,11111222' 
TCOON,ioos:station:TCOON:057:1,2008-10-07T00:00:00Z,28.4460,-96.3961,0.0,6.2,134.0,7.1,'11111222,11111222,11111222' 
TCOON,ioos:station:TCOON:057:1,2008-10-07T01:00:00Z,28.4460,-96.3961,0.0,6.0,130.0,6.9,'11111222,11111222,11111222' 
TCOON,ioos:station:TCOON:057:1,2008-10-07T02:00:00Z,28.4460,-96.3961,0.0,5.6,139.0,6.0,'11111222,11111222,11111222' 
TCOON,ioos:station:TCOON:057:1,2008-10-07T03:00:00Z,28.4460,-96.3961,0.0,4.8,142.0,5.5,'11111222,11111222,11111222' 
TCOON,ioos:station:TCOON:057:1,2008-10-07T04:00:00Z,28.4460,-96.3961,0.0,4.0,154.0,4.4,'11111222,11111222,11111222' 
TCOON,ioos:station:TCOON:057:1,2008-10-07T05:00:00Z,28.4460,-96.3961,0.0,3.0,160.0,3.5,'11111222,11111222,11111222' 
TCOON,ioos:station:TCOON:057:1,2008-10-07T06:00:00Z,28.4460,-96.3961,0.0,4.2,149.0,4.7,'11111222,11111222,11111222' 
TCOON,ioos:station:TCOON:057:1,2008-10-07T07:00:00Z,28.4460,-96.3961,0.0,2.2,154.0,2.6,'11111222,11111222,11111222' 
TCOON,ioos:station:TCOON:057:1,2008-10-07T08:00:00Z,28.4460,-96.3961,0.0,1.8,125.0,2.0,'11111222,11111222,11111222' 
TCOON,ioos:station:TCOON:057:1,2008-10-07T09:00:00Z,28.4460,-96.3961,0.0,2.2,156.0,2.6,'11111222,11111222,11111222' 
TCOON,ioos:station:TCOON:057:1,2008-10-07T10:00:00Z,28.4460,-96.3961,0.0,2.1,152.0,2.4,'11111222,11111222,11111222' 
TCOON,ioos:station:TCOON:057:1,2008-10-07T11:00:00Z,28.4460,-96.3961,0.0,2.1,162.0,2.4,'11111222,11111222,11111222' 
TCOON,ioos:station:TCOON:057:1,2008-10-07T12:00:00Z,28.4460,-96.3961,0.0,7.5,153.0,8.4,'11111222,11111222,11111222' 
TCOON,ioos:station:TCOON:057:1,2008-10-07T13:00:00Z,28.4460,-96.3961,0.0,2.8,202.0,3.2,'11111222,11111222,11111222' 
TCOON,ioos:station:TCOON:057:1,2008-10-07T14:00:00Z,28.4460,-96.3961,0.0,2.5,239.0,3.0,'11111222,11111222,11111222' 
TCOON,ioos:station:TCOON:057:1,2008-10-07T15:00:00Z,28.4460,-96.3961,0.0,2.5,1.0,3.0,'11111222,11111222,11111222' 
TCOON,ioos:station:TCOON:057:1,2008-10-07T16:00:00Z,28.4460,-96.3961,0.0,7.5,3.0,8.3,'11111222,11111222,11111222' 
TCOON,ioos:station:TCOON:057:1,2008-10-07T17:00:00Z,28.4460,-96.3961,0.0,4.0,59.0,4.3,'11111222,11111222,11111222' 
TCOON,ioos:station:TCOON:057:1,2008-10-07T18:00:00Z,28.4460,-96.3961,0.0,1.2,15.0,1.5,'11111222,11111222,11111222' 
TCOON,ioos:station:TCOON:057:1,2008-10-07T19:00:00Z,28.4460,-96.3961,0.0,2.7,347.0,3.0,'11111222,11111222,11111222' 
TCOON,ioos:station:TCOON:057:1,2008-10-07T20:00:00Z,28.4460,-96.3961,0.0,0.8,3.0,1.0,'11111222,11111222,11111222' 
TCOON,ioos:station:TCOON:057:1,2008-10-07T21:00:00Z,28.4460,-96.3961,0.0,1.7,58.0,1.9,'11111222,11111222,11111222' 
TCOON,ioos:station:TCOON:057:1,2008-10-07T22:00:00Z,28.4460,-96.3961,0.0,3.8,59.0,4.3,'11111222,11111222,11111222' 
TCOON,ioos:station:TCOON:057:1,2008-10-07T23:00:00Z,28.4460,-96.3961,0.0,5.3,21.0,5.9,'11111222,11111222,11111222' 
TCOON,ioos:station:TCOON:057:1,2008-10-08T00:00:00Z,28.4460,-96.3961,0.0,5.3,13.0,6.1,'11111222,11111222,11111222' 
TCOON,ioos:station:TCOON:057:1,2008-10-08T01:00:00Z,28.4460,-96.3961,0.0,9.8,3.0,11.0,'11111222,11111222,11111222' 
TCOON,ioos:station:TCOON:057:1,2008-10-08T02:00:00Z,28.4460,-96.3961,0.0,9.1,9.0,10.0,'11111222,11111222,11111222' 
TCOON,ioos:station:TCOON:057:1,2008-10-08T03:00:00Z,28.4460,-96.3961,0.0,10.3,5.0,12.0,'11111222,11111222,11111222' 
TCOON,ioos:station:TCOON:057:1,2008-10-08T04:00:00Z,28.4460,-96.3961,0.0,10.2,2.0,11.7,'11111222,11111222,11111222' 
TCOON,ioos:station:TCOON:057:1,2008-10-08T05:00:00Z,28.4460,-96.3961,0.0,10.7,7.0,12.0,'11111222,11111222,11111222' 
TCOON,ioos:station:TCOON:057:1,2008-10-08T06:00:00Z,28.4460,-96.3961,0.0,11.8,7.0,14.1,'11111222,11111222,11111222' 
TCOON,ioos:station:TCOON:057:1,2008-10-08T07:00:00Z,28.4460,-96.3961,0.0,11.0,24.0,13.9,'11111222,11111222,11111222' 
TCOON,ioos:station:TCOON:057:1,2008-10-08T08:00:00Z,28.4460,-96.3961,0.0,9.8,24.0,11.3,'11111222,11111222,11111222' 
TCOON,ioos:station:TCOON:057:1,2008-10-08T09:00:00Z,28.4460,-96.3961,0.0,7.3,26.0,8.2,'11111222,11111222,11111222' 
TCOON,ioos:station:TCOON:057:1,2008-10-08T10:00:00Z,28.4460,-96.3961,0.0,5.1,14.0,5.9,'11111222,11111222,11111222' 
TCOON,ioos:station:TCOON:057:1,2008-10-08T11:00:00Z,28.4460,-96.3961,0.0,4.9,25.0,5.9,'11111222,11111222,11111222' 
TCOON,ioos:station:TCOON:057:1,2008-10-08T12:00:00Z,28.4460,-96.3961,0.0,5.2,6.0,6.4,'11111222,11111222,11111222' 
TCOON,ioos:station:TCOON:057:1,2008-10-08T13:00:00Z,28.4460,-96.3961,0.0,4.8,352.0,5.4,'11111222,11111222,11111222' 
TCOON,ioos:station:TCOON:057:1,2008-10-08T14:00:00Z,28.4460,-96.3961,0.0,3.4,345.0,4.1,'11111222,11111222,11111222' 
TCOON,ioos:station:TCOON:057:1,2008-10-08T15:00:00Z,28.4460,-96.3961,0.0,4.0,339.0,4.6,'11111222,11111222,11111222' 
TCOON,ioos:station:TCOON:057:1,2008-10-08T16:00:00Z,28.4460,-96.3961,0.0,3.8,360.0,4.4,'11111222,11144222,11111222' 
TCOON,ioos:station:TCOON:057:1,2008-10-08T17:00:00Z,28.4460,-96.3961,0.0,3.6,3.0,4.4,'11111222,11111222,11111222' 
TCOON,ioos:station:TCOON:057:1,2008-10-08T18:00:00Z,28.4460,-96.3961,0.0,3.0,347.0,3.4,'11111222,11111222,11111222' 
TCOON,ioos:station:TCOON:057:1,2008-10-08T19:00:00Z,28.4460,-96.3961,0.0,2.6,22.0,3.3,'11111222,11111222,11111222' 
TCOON,ioos:station:TCOON:057:1,2008-10-08T20:00:00Z,28.4460,-96.3961,0.0,1.3,352.0,1.6,'11111222,11111222,11111222' 
TCOON,ioos:station:TCOON:057:1,2008-10-08T21:00:00Z,28.4460,-96.3961,0.0,0.4,59.0,0.7,'11111222,11111222,11111222' 
TCOON,ioos:station:TCOON:057:1,2008-10-08T22:00:00Z,28.4460,-96.3961,0.0,2.1,9.0,2.4,'11111222,11111222,11111222' 
TCOON,ioos:station:TCOON:057:1,2008-10-08T23:00:00Z,28.4460,-96.3961,0.0,1.1,158.0,1.4,'11111222,11111222,11111222' 
TCOON,ioos:station:TCOON:057:1,2008-10-09T00:00:00Z,28.4460,-96.3961,0.0,1.4,6.0,1.8,'11111222,11111222,11111222' 
TCOON,ioos:station:TCOON:057:1,2008-10-09T01:00:00Z,28.4460,-96.3961,0.0,1.9,15.0,2.3,'11111222,11111222,11111222' 
TCOON,ioos:station:TCOON:057:1,2008-10-09T02:00:00Z,28.4460,-96.3961,0.0,2.6,6.0,3.0,'11111222,11111222,11111222' 
TCOON,ioos:station:TCOON:057:1,2008-10-09T03:00:00Z,28.4460,-96.3961,0.0,3.0,28.0,3.3,'11111222,11111222,11111222' 
TCOON,ioos:station:TCOON:057:1,2008-10-09T04:00:00Z,28.4460,-96.3961,0.0,4.1,41.0,4.3,'11111222,11111222,11111222' 
TCOON,ioos:station:TCOON:057:1,2008-10-09T05:00:00Z,28.4460,-96.3961,0.0,5.3,45.0,5.8,'11111222,11111222,11111222' 
TCOON,ioos:station:TCOON:057:1,2008-10-09T06:00:00Z,28.4460,-96.3961,0.0,6.2,57.0,6.7,'11111222,11111222,11111222' 
TCOON,ioos:station:TCOON:057:1,2008-10-09T07:00:00Z,28.4460,-96.3961,0.0,6.0,60.0,6.5,'11111222,11111222,11111222' 
TCOON,ioos:station:TCOON:057:1,2008-10-09T08:00:00Z,28.4460,-96.3961,0.0,5.3,62.0,6.0,'11111222,11111222,11111222' 
TCOON,ioos:station:TCOON:057:1,2008-10-09T09:00:00Z,28.4460,-96.3961,0.0,4.3,67.0,4.9,'11111222,11111222,11111222' 
TCOON,ioos:station:TCOON:057:1,2008-10-09T10:00:00Z,28.4460,-96.3961,0.0,4.8,51.0,5.3,'11111222,11111222,11111222' 
TCOON,ioos:station:TCOON:057:1,2008-10-09T11:00:00Z,28.4460,-96.3961,0.0,4.0,38.0,4.3,'11111222,11111222,11111222' 
TCOON,ioos:station:TCOON:057:1,2008-10-09T12:00:00Z,28.4460,-96.3961,0.0,4.7,44.0,5.4,'11111222,11111222,11111222' 